Vertical_Velocity
2 0 1 2 6 4 5 7 7 6 2 -0 10 19 -3 -0 0 2 0 -3 -3 -1 -2 -1 -2 -0 -0 -1 -1 -3 -3 -1 -10 2 -3 1 -5 -3 -1 -5 -6 -5 -2
1 -0 -2 -0 0 6 11 6 6 4 43 6 1 -1 -1 4 -3 -3 -2 -1 -1 -1 -2 -3 -2 -1 -2 -1 -3 -3 -4 3 -4 -16 8 -1 -7 -4 -2 -2 -4 -3 -4
-1 -0 1 -3 -4 -3 -5 -6 4 10 4 -21 6 5 -10 0 -2 -5 -1 -0 -1 -2 -1 -2 -0 -3 -1 -1 -1 -1 1 -2 1 1 -8 3 1 1 2 -3 -3 -3 -3
4 3 -2 -1 -5 -2 -3 32 20 3 -1 -6 13 -1 -1 3 -3 -4 -1 -2 -2 -1 -2 -3 -1 -1 -1 1 1 2 0 -1 7 1 -2 -1 3 4 -2 -5 -2 -2 -2
-3 4 4 0 3 6 1 5 -3 -11 -12 15 -1 1 5 -6 -5 -1 -2 -1 -1 -2 -2 -1 -2 -1 2 6 4 7 3 -1 -3 -1 -4 1 0 2 3 6 -5 -1 2
2 -1 2 2 3 2 -1 9 -4 -0 9 -0 0 -4 -5 -1 -1 0 -0 -1 -1 -3 -2 0 1 -3 -8 4 5 5 6 4 2 4 6 4 1 1 2 -1 -2 -2 -4
-2 1 3 4 1 -1 1 -1 1 -0 -1 1 -2 -0 1 -0 -0 -2 -3 -3 -2 -1 1 1 2 5 -3 1 -0 -7 1 9 1 5 2 6 -1 4 2 3 0 -2 -1
6 6 3 1 -1 -3 3 -6 1 2 -1 -0 -1 -0 1 -1 -1 -2 -2 -2 -2 1 2 1 0 3 7 7 1 2 2 1 -7 1 1 1 0 1 1 2 1 -1 -1
3 1 -1 -3 -2 1 -0 6 -0 -1 -1 -0 -0 -1 -1 1 -2 2 -3 -4 -2 2 1 2 0 4 4 3 -4 0 2 3 1 6 -2 -1 -1 -0 4 -1 1 -2 -1
-3 -3 -2 -0 -3 2 -1 -3 -2 -1 -1 0 0 -1 -1 -0 1 1 2 -3 -3 -6 1 1 3 -6 11 12 -0 2 -7 9 3 -4 -6 5 5 1 4 -1 1 -1 -2
-0 -1 -1 -0 0 -3 -1 -1 -1 -0 0 -0 0 -2 -0 -2 1 2 4 -1 -8 -8 -2 -1 3 4 -4 7 10 4 0 8 -0 -0 1 1 -0 -0 -2 -6 3 0 -1
-2 0 -0 -1 -1 -0 -1 -1 -1 -0 1 -0 0 0 -0 -1 -1 1 3 3 6 -7 -0 -0 -4 -2 1 2 2 4 8 5 -1 1 -1 2 1 -0 -0 -0 1 -0 -1
0 -1 -1 0 -0 -1 -1 -0 -1 -4 -3 -2 -1 -2 -0 1 -0 -3 -0 -0 -0 -6 -6 -2 -2 -2 -1 -2 3 1 4 5 5 -0 1 1 4 3 1 0 -1 -1 -1
1 3 1 1 1 -0 -1 -2 -2 -2 -2 -1 -1 0 -0 -1 -2 -1 -2 -4 0 -0 -2 -4 -5 -4 -1 -3 -1 -1 9 1 0 0 -0 4 1 1 1 2 1 0 -2
-2 0 1 1 -0 -2 -1 -3 -1 -2 -1 -2 -1 -3 -3 -1 -1 -2 -8 -6 -4 -2 -7 -0 -3 0 0 -1 0 3 3 -1 0 0 -1 -1 -1 2 2 3 2 1 -2
1 0 0 -0 1 -1 -3 -2 3 -3 -4 -2 -3 -1 -1 -4 -5 -2 -2 -4 -3 -5 -0 -3 -3 1 -1 -1 6 12 6 0 -1 -2 -1 0 1 1 1 0 2 -0 -0
-2 1 2 1 0 -1 -0 1 -2 -7 1 -1 -4 -3 -4 -4 -2 -2 -1 -2 -5 -1 -2 -1 -1 0 -2 -1 8 8 11 -0 5 7 -4 -3 2 3 1 1 1 1 1
2 2 1 1 0 1 -0 -1 -0 0 1 -3 -7 2 -3 -7 -6 -6 -5 -4 -2 -1 -2 -4 0 2 2 -0 0 1 -1 3 3 4 3 -0 3 3 0 2 -0 0 0
-1 -0 0 0 0 0 0 0 0 -1 -1 -0 0 -3 -2 -1 -2 -4 -4 -5 -4 -2 -1 -1 -1 -1 1 1 1 0 4 6 1 3 0 1 2 4 1 2 0 -0 1
-1 0 -1 1 1 1 0 -1 -1 -1 -1 -1 -1 -3 -2 -1 -1 -1 -1 -0 -1 -2 -3 -2 0 -2 -1 2 2 1 4 5 5 -0 1 5 3 4 2 2 0 0 1
-2 -0 -1 0 -1 -1 -0 0 -1 -1 -0 0 -1 -4 -3 -4 -3 -2 -1 -1 -1 -1 -1 -2 -3 -2 -2 -1 1 2 3 5 2 7 5 7 3 2 3 2 0 0 0
-1 -2 -1 -1 -1 -0 -1 -1 -2 -0 0 -1 1 -1 0 -2 -3 -3 -2 -2 -2 -3 -2 -1 -2 -3 -3 -2 -2 -1 1 2 2 3 5 -1 5 5 2 2 2 0 -0
-2 -2 -1 -0 -1 -0 -1 -1 -2 -2 -2 -1 -2 -2 -2 -1 -1 -1 -1 -1 -1 -1 -2 -1 -2 -0 -2 -1 -1 -2 -1 2 1 1 5 2 -0 7 4 3 2 1 0
-1 -1 -1 -1 0 -2 -1 -2 -2 -2 -1 -1 -2 -1 -2 -2 -2 -2 -1 -1 -0 -0 -2 -1 -1 -1 -1 -0 -0 -0 -1 -1 -1 1 -2 -0 8 -0 9 5 2 3 1
-1 -1 -0 -1 -2 -2 -1 -1 -1 -1 -1 -1 -1 -2 -2 -3 -2 -0 -1 -1 -0 -0 -0 -2 -2 -1 -1 1 -0 -1 -0 -1 0 0 -2 -3 2 3 1 5 5 2 1
-0 -0 -1 -1 -2 -2 -1 -1 -0 -1 -0 -0 -2 -2 -2 -1 -1 -1 -0 -0 -1 -0 -2 -1 -1 -1 -2 -0 1 1 1 2 3 1 -4 -1 -0 1 -1 1 7 1 1
Height
3109 3109 3108 3107 3107 3106 3107 3107 3108 3107 3106 3104 3102 3098 3097 3097 3095 3092 3089 3086 3082 3077 3072 3068 3066 3062 3058 3053 3048 3044 3039 3033 3027 3026 3019 3015 3007 3002 2998 2994 2990 2987 2983
3102 3102 3102 3101 3101 3102 3102 3102 3101 3099 3096 3097 3096 3093 3091 3088 3087 3085 3082 3077 3072 3068 3064 3060 3057 3053 3048 3044 3039 3035 3029 3024 3017 3011 3009 3004 2998 2992 2989 2984 2981 2977 2975
3096 3096 3097 3096 3095 3094 3092 3092 3092 3090 3087 3087 3087 3085 3083 3081 3079 3076 3073 3067 3063 3059 3055 3051 3047 3043 3039 3035 3030 3024 3018 3013 3007 3001 2997 2993 2989 2984 2979 2974 2971 2968 2966
3090 3090 3089 3090 3089 3087 3086 3085 3082 3079 3076 3079 3079 3076 3075 3072 3069 3067 3062 3058 3054 3049 3046 3042 3038 3034 3030 3025 3019 3014 3007 3002 2997 2991 2986 2983 2979 2975 2970 2966 2962 2960 2958
3083 3083 3083 3083 3082 3082 3080 3077 3077 3074 3076 3073 3072 3069 3066 3063 3059 3055 3052 3048 3044 3040 3036 3032 3027 3023 3020 3015 3009 3003 2997 2990 2985 2980 2976 2973 2970 2968 2964 2962 2955 2952 2951
3076 3077 3076 3075 3075 3074 3073 3072 3070 3068 3067 3065 3063 3060 3057 3053 3049 3046 3043 3040 3035 3031 3026 3022 3016 3011 3005 3002 2997 2992 2987 2979 2974 2970 2966 2963 2961 2960 2956 2951 2947 2944 2943
3068 3069 3069 3068 3067 3066 3066 3065 3064 3062 3059 3056 3053 3050 3048 3044 3041 3039 3035 3030 3025 3021 3016 3011 3005 3000 2993 2988 2982 2976 2973 2969 2963 2961 2957 2955 2952 2949 2945 2942 2938 2936 2935
3062 3062 3061 3060 3059 3059 3059 3058 3056 3053 3051 3048 3045 3042 3039 3037 3034 3030 3025 3019 3014 3010 3005 2999 2993 2988 2981 2975 2970 2964 2959 2955 2952 2949 2947 2945 2943 2940 2937 2933 2931 2929 2928
3055 3055 3054 3053 3054 3053 3051 3049 3048 3045 3043 3040 3037 3034 3030 3027 3023 3020 3014 3008 3003 2999 2993 2987 2981 2974 2968 2962 2956 2952 2949 2946 2943 2940 2938 2936 2934 2931 2929 2926 2923 2921 2920
3048 3048 3047 3047 3046 3044 3043 3042 3040 3037 3034 3031 3028 3025 3022 3018 3014 3010 3004 2998 2992 2986 2980 2973 2966 2959 2954 2950 2943 2940 2937 2937 2934 2930 2928 2927 2926 2923 2921 2918 2916 2914 2913
3041 3040 3040 3040 3039 3037 3035 3034 3031 3028 3025 3023 3020 3016 3013 3009 3004 2999 2994 2986 2979 2973 2965 2958 2952 2945 2939 2936 2933 2930 2929 2927 2924 2922 2920 2918 2916 2914 2912 2909 2909 2907 2906
3034 3034 3033 3032 3030 3029 3026 3024 3022 3019 3017 3013 3010 3007 3003 2998 2993 2988 2983 2977 2969 2960 2953 2945 2937 2932 2926 2922 2920 2919 2919 2916 2915 2914 2912 2910 2909 2907 2905 2903 2901 2900 2898
3028 3026 3025 3023 3021 3020 3018 3016 3013 3010 3007 3003 2999 2995 2991 2986 2981 2976 2969 2962 2955 2945 2937 2931 2924 2918 2913 2909 2909 2909 2908 2906 2905 2905 2904 2903 2901 2900 2898 2896 2894 2893 2891
3021 3019 3017 3015 3013 3011 3009 3007 3004 3001 2997 2993 2989 2984 2979 2974 2968 2962 2956 2948 2940 2933 2925 2918 2913 2908 2903 2900 2900 2899 2898 2898 2897 2897 2897 2896 2894 2892 2890 2889 2887 2886 2885
3014 3012 3010 3007 3005 3003 3000 2997 2994 2990 2987 2983 2978 2973 2967 2962 2956 2949 2941 2934 2927 2921 2914 2909 2905 2901 2897 2895 2893 2892 2892 2891 2890 2890 2889 2888 2886 2885 2883 2882 2880 2879 2878
3005 3004 3001 2999 2997 2994 2991 2988 2986 2980 2976 2971 2966 2962 2956 2950 2944 2938 2931 2925 2918 2912 2906 2901 2899 2895 2892 2890 2888 2887 2886 2884 2883 2883 2882 2881 2879 2878 2876 2874 2873 2873 2872
2996 2995 2993 2991 2989 2986 2983 2979 2974 2969 2966 2961 2955 2950 2945 2940 2934 2928 2921 2914 2907 2902 2897 2892 2889 2887 2885 2884 2882 2880 2879 2877 2876 2875 2874 2873 2873 2871 2870 2868 2866 2866 2866
2989 2988 2986 2983 2980 2976 2973 2969 2965 2960 2955 2950 2945 2940 2934 2928 2922 2916 2910 2903 2897 2891 2887 2883 2880 2878 2876 2874 2873 2872 2871 2870 2869 2868 2867 2866 2866 2865 2863 2862 2860 2860 2861
2981 2980 2977 2974 2971 2967 2963 2959 2954 2949 2944 2939 2934 2928 2923 2916 2910 2904 2898 2892 2887 2883 2878 2873 2869 2867 2866 2865 2864 2863 2863 2862 2862 2861 2860 2859 2859 2858 2857 2856 2855 2855 2856
2973 2971 2969 2965 2961 2957 2953 2948 2943 2938 2933 2928 2922 2917 2911 2905 2899 2893 2887 2882 2877 2873 2868 2864 2860 2857 2856 2855 2855 2855 2855 2854 2854 2853 2852 2852 2853 2852 2852 2850 2850 2850 2851
2964 2962 2959 2955 2951 2947 2942 2937 2932 2927 2922 2916 2910 2905 2899 2893 2887 2882 2877 2872 2868 2864 2859 2856 2852 2848 2845 2844 2844 2845 2845 2845 2846 2845 2844 2845 2846 2846 2846 2845 2845 2845 2846
2955 2952 2949 2945 2940 2936 2931 2926 2921 2916 2910 2905 2899 2894 2888 2883 2877 2872 2867 2863 2859 2855 2851 2848 2844 2840 2837 2835 2833 2834 2835 2836 2837 2838 2838 2839 2838 2839 2840 2841 2840 2840 2841
2946 2943 2939 2934 2930 2925 2919 2914 2909 2904 2898 2893 2887 2882 2877 2872 2866 2862 2857 2853 2850 2846 2843 2839 2836 2833 2830 2827 2825 2823 2824 2825 2827 2829 2830 2832 2832 2833 2834 2835 2836 2836 2837
2936 2932 2928 2923 2918 2913 2908 2903 2897 2892 2886 2881 2876 2870 2865 2861 2856 2851 2847 2844 2840 2837 2833 2830 2827 2824 2822 2819 2817 2815 2814 2815 2816 2819 2821 2824 2826 2827 2828 2830 2831 2832 2832
2925 2921 2916 2911 2906 2901 2896 2890 2885 2880 2874 2869 2864 2859 2854 2850 2846 2841 2837 2834 2831 2827 2824 2821 2817 2814 2813 2811 2809 2808 2807 2806 2806 2808 2811 2815 2818 2820 2822 2823 2825 2827 2828
2913 2909 2904 2899 2894 2889 2883 2878 2873 2867 2862 2858 2853 2848 2844 2839 2835 2832 2828 2825 2821 2818 2815 2811 2808 2805 2803 2801 2800 2800 2799 2798 2799 2800 2801 2805 2809 2813 2815 2817 2820 2822 2824